Regional Weather Roundup
Issued by NWS Midland/Odessa, TX

Skip options and go directly to product.
Home | Oldest Version | Next Version | Current Version | All | Text Only | Save Text | Print | Product List | Glossary On

Skip product version selection by date and time.   
072
ASUS44 KMAF 222201
RWRMAF
MIDLAND AREA WEATHER ROUNDUP
NATIONAL WEATHER SERVICE MIDLAND TX
500 PM CDT MON MAY 22 2017

...IN SOUTHWEST TEXAS AND SOUTHEAST NEW MEXICO...

CITY           SKY/WX    TMP DP  RH WIND       PRES   REMARKS
ALPINE         SUNNY     83  41  22 E9G16     30.02F
ANDREWS        FAIR      73  57  57 E6        29.97F
ARTESIA        MOSUNNY   77  55  47 SE10G17   29.93F
BIG SPRING     CLOUDY    76  60  57 S6        29.96F
CARLSBAD       NOT AVBL
DRYDEN           N/A     74  65  73 E14       29.92F
FORT STOCKTON  SUNNY     85  60  42 MISG      29.91F
GUAD PASS      CLOUDY    82  40  22 S13       30.03F
HOBBS          NOT AVBL
MARFA          PTSUNNY   86  41  20 SW16G23   29.99F
MIDLAND AIRPK  SUNNY     78  57  49 S5        29.95F
MIDLAND INTL   SUNNY     76  56  49 MISG      29.94F
ODESSA         SUNNY     77  56  48 VRB5      29.94F
PECOS          SUNNY     82  55  39 NE9       29.90F
PRESIDIO       FAIR      92  47  21 S3        29.88F
SEMINOLE       CLOUDY    76  55  47 N3        29.99F
SNYDER         CLOUDY    73  62  67 SE6       29.96F
WINK           SUNNY     81  55  40 SE6       29.89F
$$
...OTHER STATIONS IN TEXAS...

CITY           SKY/WX    TMP DP  RH WIND       PRES   REMARKS
ABILENE        CLOUDY    75  61  61 SE9       29.94F
AMARILLO       CLOUDY    68  50  52 N12       30.03F
AUSTIN         CLOUDY    76  66  71 NE10      29.91F
BROWNSVILLE    SUNNY     94  74  52 SE16      29.78F HX 104
CORPUS CHRISTI CLOUDY    83  72  69 NE6       29.83F
DALLAS FTW     CLOUDY    77  61  57 SE8       29.92F
DEL RIO        CLOUDY    74  68  81 SW3       29.90F
EL PASO        MOSUNNY   92  27   9 SW12G26   29.92F
HOUSTON INT    LGT RAIN  71  67  87 NW6       29.89F
LUBBOCK        PTSUNNY   79  54  41 VRB5      29.98F
SAN ANGELO     CLOUDY    74  63  68 E9        29.94F
SAN ANTONIO    CLOUDY    75  66  73 E8        29.91F
WACO           CLOUDY    76  64  66 E7        29.93F
WICHITA FALLS  NOT AVBL
$$
...OTHER LOCATIONS IN NEW MEXICO...

CITY           SKY/WX    TMP DP  RH WIND       PRES   REMARKS
ALAMOGORDO     CLOUDY    86  30  13 NW13      29.97S
ALBUQUERQUE    MOSUNNY   80  14   8 NW22G28   30.04F
CANNON AFB     CLOUDY    66  54  65 N16       30.02S THUNDER
CLOVIS         CLOUDY    66  48  52 N20       30.01F
HOLLOMAN AFB   SUNNY     86  32  14 W7        29.98F
ROSWELL        CLOUDY    72  52  49 E6        29.94F
RUIDOSO        CLOUDY    72  25  17 SW15G24   30.14F
SANTA FE       PTSUNNY   76  24  14 W15G32    30.05F
TRUTH OR CONSE CLOUDY    82  23  11 VRB5      30.02F
TUCUMCARI      CLOUDY    71  49  45 E8        30.01F
$$

  • National Weather Service
  • Southern Region Headquarters
  • 819 Taylor Street, Room 10A06
  • Fort Worth, TX 76102
  • Page Author: NWS Fort Worth
  • Web Master: SR-SRH.Webmaster@noaa.gov
  •  
  • Page last modified: 30-Sep-2016 6:36 PM UTC
USA.gov is the U.S. government's official web portal to all federal, state and local government web resources and services.